Torna al catalogo

STARLINK-37311

AttivoComunicazioniVLEO
NORAD 69161·PAYLOAD·🇺🇸 United States

Lanciato May 21, 2026 da Cape Canaveral Space Force Station

Loading…

Prossimi Passaggi (prossime 24 ore)

TLE

AggiornatoSource: CelesTrak SupGP

Epoca: Sep 14, 2026, 23:37 UTC

1 69161C 26111P   26257.98451389  .00050295  00000+0  14859-2 0  2579
2 69161  53.1580  91.5465 0001225  77.5096 199.8974 15.34366214    14

Traccia STARLINK-37311 in tempo reale con AllMySat

Download on the App Store